Flag Weather past 2 weeks in Ciudad del Este, Paraguay

Now
88 °F

Sunny.


Feels Like: 87 °F
Forecast: 60 / 87 °F
Wind: 3 mph from North

Location: Foz Do Iguacu Aeroporto

Current Time: Nov 23, 2014 at 4:09:51 PM

Latest Report: Nov 23, 2014 at 3:00 PM


Visibility: 10 mi

Pressure: 29.89 "Hg

Humidity: 35%

Dew point: 57 °F

Location of Ciudad del EsteLocation

Historic Weather in Ciudad del Este — Graph

°F

Ciudad del Este temperature yesterday

Maximum temperature yesterday: 82 °F (at 4:00 PM)
Minimum temperature yesterday: 68 °F (at 9:00 PM)
Average temperature yesterday: 73 °F

Past Weeks' High & Low Weather Summary

 TemperatureHumidityPressure
High91 °F (Nov 9, 3:00 PM)100% (Nov 9, 4:00 AM)30.09 "Hg (Nov 9, 4:00 AM)
Low34 °F (Nov 21, 10:00 PM)31% (Nov 18, 2:00 PM)29.71 "Hg (Nov 11, 10:00 PM)
Average73 °F75%29.88 "Hg
* Reported Nov 8 3:00 PM — Nov 23 3:00 PM, Ciudad del Este, Weather by CustomWeather, © 2014

Note: Actual official high and low records may vary slightly from our data, if they occured in-between our weather recording intervals... More about our weather records

Advertising

Ciudad del Este weather history for previous 24 hours

 ConditionsComfort  
Time TempWeatherWind HumidityBarometerVisibility
3:00 PM
Nov 23
88 °FSunny.3 mph35%29.89 "Hg10 mi
2:00 PM86 °FPassing clouds.5 mph38%29.92 "HgN/A
1:00 PM84 °FPassing clouds.3 mph43%29.95 "HgN/A
12:00 PM82 °FSunny.5 mph51%29.95 "Hg10 mi
11:00 AM81 °FSunny.No wind54%29.98 "Hg10 mi
10:00 AM77 °FSunny.5 mph61%29.98 "Hg10 mi
9:00 AM75 °FSunny.5 mph65%29.98 "Hg10 mi
7:00 AM64 °FSunny.2 mph94%29.95 "Hg10 mi
6:00 AM57 °FSunny.2 mph100%29.92 "Hg10 mi
5:00 AM57 °FClear.2 mph100%29.89 "Hg10 mi
4:00 AM59 °FClear.2 mph94%29.89 "Hg10 mi
3:00 AM59 °FClear.2 mph100%29.89 "Hg10 mi
2:00 AM61 °FClear.5 mph94%29.89 "Hg10 mi
1:00 AM63 °FClear.2 mph94%29.92 "Hg10 mi
12:00 AM64 °FClear.5 mph88%29.92 "Hg10 mi
11:00 PM
Nov 22
68 °FClear.5 mph78%29.92 "Hg10 mi
10:00 PM68 °FClear.5 mph78%29.92 "Hg10 mi
9:00 PM68 °FClear.5 mph83%29.89 "Hg10 mi
8:00 PM70 °FClear.5 mph83%29.89 "Hg10 mi
7:00 PM75 °FSunny.3 mph69%29.89 "Hg10 mi
6:00 PM81 °FPassing clouds.3 mph58%29.86 "HgN/A
5:00 PM82 °FPassing clouds.5 mph58%29.86 "HgN/A
4:00 PM82 °FPassing clouds.6 mph62%29.86 "HgN/A
Weather by CustomWeather, © 2014

See weather overviewHow to use our weather pages